Weather History for Tulsa, OK

Change the Weather History Date:

Monday, January 20, 2014

  Actual Average Record
Temperature  
Mean Temperature 48 °F 38 °F  
Max Temperature 62 °F 48 °F 77 °F (1986)
Min Temperature 33 °F 27 °F -3 °F (1985)
Degree Days  
Heating Degree Days 17 27  
Month to date heating degree days 550 555  
Since 1 July heating degree days 2164 1983  
Moisture  
Dew Point 23 °F    
Average Humidity 40    
Maximum Humidity 59    
Minimum Humidity 21    
Precipitation  
Precipitation 0.00 in 0.06 in 1.63 in (1904)
Month to date precipitation 0.13 1.05  
Year to date precipitation 0.13 1.05  
Sea Level Pressure  
Sea Level Pressure 30.00 in    
Wind  
Wind Speed 9 mph (North)    
Max Wind Speed 25 mph    
Max Gust Speed 32 mph    
Visibility 10 miles    
Events      
T = Trace of Precipitation, MM = Missing Value Source: NWS Daily Summary

Daily Weather History Graph

Daily Weather History Graph

Search for Another Location

Airport:

Trip Planner

Search our weather history database for the weather conditions in past years. The results will help you decide how hot, cold, wet, or windy it might be!

Date:

Astronomy

Jan. 20, 2014 Rise Set
Actual Time 7:32 AM CST 5:37 PM CST
Civil Twilight 7:04 AM CST 6:05 PM CST
Nautical Twilight 6:32 AM CST 6:36 PM CST
Astronomical Twilight 6:02 AM CST 7:07 PM CST
Moon 10:03 PM CST (1/20) 9:41 AM CST (1/20)
Length of Visible Light 11h 00m
Length of Day
10h 05m
Waning Gibbous, 82% of the Moon is Illuminated
Jan 20
Waning Gibbous
Jan 23
Last Quarter
Jan 30
New
Feb 6
First Quarter
Feb 14
Full

Hourly Weather History & Observations

Time (CST) Temp. Windchill Dew Point Humidity Pressure Visibility Wind Dir Wind Speed Gust Speed Precip Events Conditions
12:53 AM 48.9 °F - 25.0 °F 39% 29.88 in 10.0 mi South 8.1 mph - N/A   Clear
1:53 AM 46.9 °F - 24.1 °F 41% 29.86 in 10.0 mi South 6.9 mph - N/A   Clear
2:53 AM 46.0 °F 42.5 °F 24.1 °F 42% 29.86 in 10.0 mi South 6.9 mph - N/A   Clear
3:53 AM 44.1 °F 42.5 °F 24.1 °F 45% 29.86 in 10.0 mi NE 3.5 mph - N/A   Clear
4:53 AM 41.0 °F 38.0 °F 25.0 °F 53% 29.87 in 10.0 mi Variable 4.6 mph - N/A   Clear
5:53 AM 37.9 °F 35.5 °F 24.1 °F 57% 29.87 in 10.0 mi SE 3.5 mph - N/A   Clear
6:53 AM 37.9 °F 35.5 °F 24.1 °F 57% 29.87 in 10.0 mi SE 3.5 mph - N/A   Clear
7:53 AM 37.0 °F 33.3 °F 24.1 °F 59% 29.88 in 10.0 mi SE 4.6 mph - N/A   Clear
8:53 AM 44.1 °F 41.5 °F 26.1 °F 49% 29.89 in 10.0 mi South 4.6 mph - N/A   Clear
9:53 AM 48.0 °F - 26.1 °F 42% 29.92 in 10.0 mi Calm Calm - N/A   Clear
10:53 AM 52.0 °F - 26.1 °F 37% 29.93 in 10.0 mi Calm Calm - N/A   Clear
11:53 AM 57.9 °F - 26.1 °F 30% 29.92 in 10.0 mi NNE 6.9 mph - N/A   Clear
12:53 PM 61.0 °F - 25.0 °F 25% 29.90 in 10.0 mi North 9.2 mph - N/A   Clear
1:53 PM 60.1 °F - 28.0 °F 30% 29.91 in 10.0 mi NNW 18.4 mph - N/A   Clear
2:53 PM 61.0 °F - 26.1 °F 26% 29.94 in 10.0 mi North 16.1 mph 24.2 mph N/A   Partly Cloudy
3:53 PM 62.1 °F - 24.1 °F 23% 29.97 in 10.0 mi North 12.7 mph 26.5 mph N/A   Partly Cloudy
4:53 PM 59.0 °F - 19.9 °F 22% 30.04 in 10.0 mi North 19.6 mph 27.6 mph N/A   Scattered Clouds
5:53 PM 53.1 °F - 21.9 °F 30% 30.09 in 10.0 mi North 11.5 mph - N/A   Partly Cloudy
6:53 PM 52.0 °F - 21.0 °F 30% 30.14 in 10.0 mi NNW 17.3 mph - N/A   Partly Cloudy
7:53 PM 45.0 °F 40.6 °F 21.0 °F 39% 30.18 in 10.0 mi NNW 8.1 mph - N/A   Clear
8:53 PM 41.0 °F 35.2 °F 21.0 °F 45% 30.20 in 10.0 mi NNW 9.2 mph - N/A   Clear
9:53 PM 39.9 °F 33.9 °F 21.9 °F 49% 30.22 in 10.0 mi NNW 9.2 mph - N/A   Clear
10:53 PM 44.1 °F 35.7 °F 19.9 °F 38% 30.26 in 10.0 mi NNW 20.7 mph 27.6 mph N/A   Clear
11:53 PM 41.0 °F 31.4 °F 15.1 °F 35% 30.28 in 10.0 mi NNW 21.9 mph 28.8 mph N/A   Clear